Temp
-9 -9 -10 -10 -10 -11 -11 -11 -11 -12 -12 -12 -12 -12 -13 -13 -13 -13 -13 -14 -14 -14 -14 -14 -15 -14 -14 -14 -15 -15 -15 -15 -15 -15 -15 -15 -15 -15 -15 -15 -15 -14 -14 -14 -14 -14 -14 -14 -14 -14 -14 -14 -13 -13 -13 -13 -12 -12 -12 -12 -12 -11 -12 -12 -12 -11 -11 -11 -11
-9 -10 -10 -10 -11 -11 -11 -11 -12 -12 -12 -12 -13 -13 -13 -13 -13 -14 -14 -14 -14 -14 -14 -15 -15 -15 -15 -15 -15 -15 -15 -15 -15 -15 -15 -15 -15 -15 -15 -15 -15 -14 -14 -14 -14 -14 -14 -14 -14 -14 -14 -14 -13 -13 -13 -13 -13 -12 -12 -12 -11 -11 -12 -12 -11 -11 -11 -11 -11
-10 -10 -10 -11 -11 -11 -11 -12 -12 -12 -12 -12 -13 -13 -13 -14 -14 -14 -14 -14 -14 -14 -15 -15 -15 -15 -15 -15 -15 -15 -15 -15 -15 -15 -15 -15 -15 -15 -15 -15 -15 -14 -14 -14 -15 -15 -15 -15 -15 -15 -14 -14 -13 -13 -13 -12 -12 -12 -12 -12 -11 -11 -11 -11 -11 -11 -11 -11 -11
-10 -10 -11 -11 -11 -11 -12 -12 -12 -12 -12 -13 -13 -13 -14 -14 -14 -14 -14 -14 -14 -15 -15 -15 -15 -15 -15 -15 -15 -15 -15 -15 -15 -15 -15 -15 -15 -15 -15 -15 -14 -14 -14 -15 -15 -15 -15 -15 -15 -15 -14 -14 -13 -13 -13 -12 -12 -12 -12 -11 -11 -11 -11 -11 -11 -11 -11 -11 -11
-10 -11 -11 -11 -11 -11 -12 -12 -12 -12 -13 -13 -13 -13 -14 -14 -14 -14 -14 -15 -15 -15 -15 -15 -15 -15 -15 -15 -15 -15 -15 -15 -15 -15 -15 -15 -15 -15 -15 -14 -14 -14 -14 -15 -15 -15 -15 -15 -15 -14 -14 -14 -13 -13 -13 -12 -12 -12 -11 -11 -11 -11 -11 -11 -11 -10 -10 -11 -11
-10 -11 -11 -11 -11 -11 -11 -12 -12 -12 -12 -13 -13 -13 -14 -14 -14 -14 -15 -15 -15 -15 -15 -15 -15 -15 -15 -15 -15 -15 -15 -15 -15 -15 -15 -15 -15 -15 -15 -14 -14 -14 -15 -15 -15 -15 -15 -15 -15 -14 -14 -14 -13 -13 -13 -13 -12 -12 -11 -11 -11 -11 -10 -10 -10 -10 -10 -10 -10
-10 -11 -11 -11 -11 -11 -11 -11 -12 -12 -12 -13 -13 -13 -14 -14 -14 -15 -15 -15 -15 -15 -15 -15 -15 -15 -15 -15 -15 -15 -15 -15 -15 -15 -15 -15 -15 -15 -15 -15 -15 -15 -15 -15 -15 -15 -15 -15 -14 -14 -14 -14 -13 -13 -13 -13 -12 -12 -11 -11 -11 -10 -10 -10 -10 -10 -10 -10 -10
-10 -10 -10 -10 -10 -11 -11 -11 -12 -12 -12 -13 -13 -14 -14 -14 -15 -15 -15 -15 -15 -15 -15 -15 -15 -15 -15 -15 -15 -15 -15 -15 -15 -15 -15 -15 -15 -15 -15 -15 -15 -15 -15 -15 -15 -15 -15 -14 -14 -14 -14 -14 -13 -13 -13 -12 -12 -12 -11 -11 -10 -10 -10 -10 -10 -10 -10 -10 -9
-10 -10 -10 -10 -10 -11 -11 -11 -12 -12 -13 -13 -14 -14 -14 -15 -15 -15 -15 -15 -15 -15 -15 -15 -15 -15 -15 -15 -15 -15 -15 -15 -15 -15 -15 -15 -15 -15 -15 -15 -15 -15 -15 -14 -14 -14 -14 -14 -14 -14 -14 -14 -13 -13 -12 -12 -12 -12 -11 -11 -10 -10 -10 -9 -10 -10 -9 -9 -9
-9 -9 -10 -10 -10 -11 -11 -12 -12 -13 -13 -14 -14 -14 -15 -15 -15 -15 -15 -15 -15 -15 -15 -15 -15 -15 -15 -15 -15 -15 -15 -15 -15 -15 -15 -15 -15 -15 -15 -15 -15 -15 -14 -14 -14 -14 -14 -14 -14 -14 -14 -13 -13 -13 -12 -12 -12 -11 -11 -11 -10 -10 -9 -9 -9 -9 -9 -9 -9
-9 -9 -10 -10 -11 -11 -12 -12 -13 -13 -14 -14 -14 -14 -15 -15 -15 -15 -15 -15 -15 -15 -15 -15 -15 -15 -15 -15 -15 -15 -15 -15 -15 -15 -15 -15 -15 -15 -15 -15 -15 -15 -14 -14 -14 -14 -14 -14 -14 -14 -13 -13 -13 -13 -12 -12 -11 -11 -11 -11 -10 -10 -9 -9 -9 -9 -9 -9 -9
-9 -10 -10 -11 -11 -12 -12 -12 -13 -13 -14 -14 -14 -15 -15 -15 -15 -15 -15 -15 -15 -15 -15 -15 -15 -15 -15 -15 -15 -15 -15 -15 -15 -15 -15 -15 -15 -15 -15 -15 -14 -14 -14 -14 -14 -14 -14 -14 -13 -13 -13 -13 -13 -13 -12 -12 -11 -11 -11 -11 -10 -10 -9 -9 -9 -9 -9 -9 -9
-10 -10 -11 -12 -12 -12 -12 -13 -13 -14 -14 -14 -15 -15 -15 -15 -15 -15 -15 -15 -15 -15 -14 -14 -14 -14 -15 -15 -15 -15 -15 -15 -15 -15 -15 -14 -14 -14 -14 -14 -14 -14 -14 -14 -14 -14 -13 -13 -13 -13 -13 -13 -13 -12 -12 -12 -11 -11 -11 -10 -10 -9 -9 -9 -9 -9 -9 -8 -8
-10 -11 -11 -12 -12 -12 -13 -13 -13 -13 -14 -14 -15 -15 -15 -15 -15 -15 -15 -15 -14 -14 -14 -14 -14 -14 -14 -15 -15 -15 -15 -15 -14 -14 -14 -14 -14 -14 -14 -14 -13 -13 -14 -13 -13 -13 -13 -13 -13 -13 -13 -13 -12 -12 -12 -12 -11 -11 -11 -10 -10 -9 -9 -9 -9 -8 -8 -8 -8
-11 -12 -12 -12 -12 -13 -13 -13 -13 -14 -14 -14 -15 -15 -15 -15 -14 -14 -14 -14 -14 -14 -14 -14 -14 -14 -14 -14 -14 -15 -14 -14 -14 -14 -14 -14 -13 -13 -13 -13 -13 -13 -13 -13 -13 -13 -13 -13 -13 -13 -12 -12 -12 -11 -11 -11 -11 -11 -10 -10 -10 -9 -9 -9 -9 -8 -8 -8 -9
-12 -12 -12 -12 -13 -13 -13 -13 -14 -14 -14 -14 -15 -15 -14 -14 -14 -14 -14 -13 -13 -13 -13 -14 -14 -14 -14 -14 -14 -14 -14 -14 -14 -14 -13 -13 -13 -13 -13 -13 -13 -13 -13 -13 -13 -13 -13 -12 -12 -12 -12 -12 -11 -11 -11 -11 -11 -10 -10 -10 -10 -9 -9 -9 -9 -8 -8 -9 -9
-12 -12 -12 -13 -13 -13 -13 -13 -14 -14 -14 -14 -14 -14 -14 -14 -13 -13 -13 -13 -13 -13 -13 -13 -14 -14 -14 -14 -14 -14 -14 -14 -13 -13 -13 -13 -13 -13 -13 -13 -13 -12 -12 -12 -12 -12 -12 -12 -12 -12 -11 -11 -11 -11 -10 -10 -10 -10 -10 -9 -9 -9 -9 -9 -9 -9 -8 -8 -8
-12 -12 -13 -13 -13 -13 -13 -14 -14 -14 -14 -14 -14 -14 -13 -13 -13 -13 -13 -13 -13 -13 -13 -13 -14 -14 -14 -13 -13 -13 -13 -13 -13 -13 -13 -13 -12 -12 -12 -12 -12 -12 -12 -12 -12 -12 -11 -11 -11 -11 -11 -10 -10 -10 -10 -10 -10 -9 -9 -9 -9 -9 -9 -9 -9 -9 -8 -8 -8
-12 -12 -13 -13 -13 -13 -14 -14 -14 -13 -13 -13 -13 -13 -13 -13 -13 -13 -13 -13 -13 -13 -13 -13 -13 -13 -13 -13 -13 -13 -13 -13 -13 -13 -12 -12 -12 -12 -12 -12 -12 -12 -12 -12 -12 -11 -10 -10 -10 -10 -10 -10 -10 -10 -10 -9 -9 -9 -9 -9 -9 -9 -9 -9 -9 -9 -8 -8 -8
-12 -13 -13 -13 -13 -14 -14 -14 -13 -13 -13 -13 -13 -13 -13 -13 -13 -13 -13 -13 -13 -13 -13 -13 -13 -13 -13 -13 -13 -13 -13 -13 -12 -12 -12 -12 -12 -12 -12 -13 -13 -13 -12 -11 -10 -10 -9 -9 -9 -9 -10 -10 -10 -10 -9 -9 -9 -9 -9 -9 -9 -9 -9 -9 -8 -8 -8 -8 -8
-12 -13 -13 -13 -13 -14 -14 -14 -13 -13 -13 -13 -13 -13 -13 -12 -12 -13 -13 -13 -13 -13 -13 -13 -13 -13 -13 -13 -13 -13 -12 -12 -12 -12 -11 -11 -12 -12 -13 -13 -13 -12 -11 -10 -9 -9 -9 -9 -9 -10 -10 -10 -10 -10 -10 -9 -9 -9 -9 -9 -9 -9 -8 -8 -8 -8 -8 -8 -9
-12 -12 -13 -13 -13 -14 -14 -13 -13 -13 -13 -13 -13 -13 -12 -12 -12 -13 -13 -13 -13 -13 -13 -13 -13 -13 -13 -13 -12 -12 -12 -12 -11 -11 -11 -11 -11 -12 -12 -12 -11 -10 -9 -9 -9 -9 -9 -10 -10 -10 -10 -10 -10 -10 -10 -9 -9 -9 -9 -9 -9 -8 -8 -8 -8 -8 -9 -9 -9
-12 -12 -13 -13 -13 -14 -13 -13 -13 -12 -12 -13 -13 -12 -12 -12 -12 -12 -13 -13 -13 -13 -13 -13 -13 -13 -13 -12 -12 -12 -12 -11 -11 -10 -10 -11 -11 -11 -11 -11 -10 -9 -9 -9 -9 -9 -10 -10 -10 -10 -10 -10 -10 -10 -10 -9 -9 -9 -9 -9 -9 -9 -9 -9 -9 -9 -9 -9 -9
-12 -12 -13 -13 -13 -13 -13 -13 -12 -12 -12 -13 -13 -12 -12 -12 -12 -12 -12 -13 -13 -13 -13 -13 -13 -13 -12 -12 -12 -12 -11 -11 -11 -10 -10 -10 -10 -10 -10 -10 -10 -9 -9 -9 -9 -9 -10 -10 -10 -10 -10 -10 -10 -10 -10 -9 -9 -9 -9 -9 -9 -9 -10 -9 -9 -9 -9 -9 -9
-12 -12 -13 -13 -13 -13 -13 -12 -12 -12 -12 -13 -12 -12 -12 -12 -12 -12 -12 -13 -13 -13 -13 -13 -13 -13 -12 -12 -12 -12 -11 -11 -11 -10 -10 -10 -10 -10 -10 -10 -10 -10 -9 -9 -9 -9 -9 -10 -10 -10 -10 -10 -10 -10 -10 -9 -9 -9 -9 -9 -9 -9 -9 -9 -9 -9 -9 -9 -9
-12 -12 -13 -13 -13 -13 -13 -12 -12 -12 -13 -12 -12 -12 -12 -12 -12 -12 -12 -13 -13 -13 -13 -13 -13 -13 -12 -12 -12 -11 -11 -11 -11 -10 -10 -10 -10 -10 -10 -10 -10 -10 -10 -10 -10 -9 -9 -10 -10 -10 -10 -9 -10 -10 -10 -9 -9 -9 -9 -9 -9 -9 -9 -9 -9 -9 -9 -9 -8
-12 -12 -13 -13 -13 -13 -13 -13 -13 -13 -13 -12 -12 -12 -12 -12 -12 -12 -12 -13 -13 -13 -13 -13 -13 -13 -12 -12 -12 -11 -11 -11 -11 -10 -10 -10 -10 -10 -10 -10 -10 -10 -10 -10 -10 -10 -10 -10 -10 -10 -10 -9 -9 -9 -9 -9 -9 -9 -9 -9 -9 -9 -9 -9 -9 -9 -9 -9 -8
-12 -12 -13 -13 -13 -13 -13 -13 -13 -13 -13 -13 -12 -12 -12 -12 -12 -12 -12 -12 -13 -13 -13 -13 -13 -13 -12 -12 -12 -11 -11 -11 -11 -10 -10 -10 -10 -10 -11 -11 -10 -10 -10 -10 -10 -10 -10 -10 -10 -10 -10 -9 -9 -9 -9 -9 -9 -9 -9 -9 -9 -9 -9 -9 -9 -9 -9 -9 -9
-12 -13 -13 -13 -13 -13 -13 -13 -13 -13 -13 -12 -12 -12 -12 -12 -12 -12 -12 -12 -12 -13 -13 -13 -13 -13 -12 -12 -12 -11 -11 -11 -11 -11 -10 -10 -10 -10 -10 -11 -10 -10 -10 -11 -11 -11 -11 -11 -10 -10 -10 -9 -9 -9 -9 -10 -10 -10 -10 -10 -10 -9 -9 -9 -9 -9 -9 -9 -9
-13 -13 -13 -13 -13 -13 -13 -13 -13 -13 -13 -12 -12 -12 -12 -12 -12 -12 -12 -12 -12 -13 -13 -13 -13 -12 -12 -12 -12 -11 -11 -11 -11 -11 -11 -10 -10 -10 -10 -10 -10 -10 -10 -11 -11 -11 -11 -11 -10 -10 -10 -10 -10 -10 -10 -10 -10 -10 -10 -10 -10 -10 -10 -10 -9 -9 -9 -9 -9
-13 -13 -13 -13 -13 -13 -13 -13 -13 -13 -13 -12 -12 -12 -12 -12 -12 -12 -12 -12 -12 -12 -12 -12 -12 -12 -12 -12 -12 -11 -11 -11 -11 -11 -11 -11 -11 -10 -10 -10 -10 -10 -10 -11 -11 -11 -11 -11 -10 -10 -10 -10 -10 -10 -10 -10 -10 -10 -10 -10 -10 -10 -9 -9 -9 -9 -9 -9 -9
-13 -13 -13 -13 -13 -13 -13 -13 -13 -13 -12 -12 -12 -12 -12 -12 -12 -12 -12 -12 -12 -12 -12 -12 -12 -12 -12 -12 -12 -11 -11 -11 -11 -11 -11 -11 -11 -11 -10 -10 -10 -10 -10 -11 -11 -11 -11 -11 -11 -10 -10 -10 -10 -10 -10 -10 -9 -9 -9 -9 -9 -9 -9 -9 -9 -9 -9 -10 -10
-13 -13 -14 -14 -13 -13 -13 -13 -13 -13 -12 -12 -12 -12 -12 -12 -12 -12 -12 -11 -12 -12 -12 -12 -12 -12 -12 -12 -12 -12 -11 -11 -11 -11 -11 -11 -11 -11 -11 -10 -10 -10 -10 -10 -11 -11 -11 -11 -11 -11 -11 -10 -10 -10 -10 -10 -10 -10 -9 -9 -9 -9 -9 -9 -10 -10 -10 -10 -10
-13 -13 -14 -14 -13 -13 -13 -13 -13 -13 -12 -12 -12 -12 -12 -12 -12 -12 -12 -11 -11 -12 -12 -12 -12 -12 -12 -12 -12 -12 -12 -11 -11 -11 -11 -11 -11 -11 -11 -11 -11 -10 -10 -10 -11 -11 -11 -11 -11 -11 -11 -11 -10 -10 -10 -10 -10 -10 -10 -10 -10 -10 -10 -10 -10 -10 -10 -10 -10
-13 -13 -14 -14 -14 -13 -13 -13 -13 -13 -12 -12 -12 -12 -12 -12 -12 -12 -12 -12 -11 -11 -12 -12 -12 -12 -12 -12 -12 -12 -12 -11 -11 -11 -11 -11 -11 -11 -11 -11 -11 -11 -10 -10 -10 -11 -11 -11 -11 -11 -11 -11 -11 -10 -10 -10 -10 -10 -10 -10 -10 -10 -10 -10 -10 -10 -10 -10 -10
-13 -13 -13 -14 -14 -13 -13 -13 -13 -13 -12 -12 -12 -12 -12 -12 -12 -12 -12 -12 -11 -11 -11 -12 -12 -12 -12 -12 -12 -12 -12 -12 -11 -11 -11 -11 -11 -11 -11 -11 -11 -11 -11 -10 -10 -11 -11 -11 -11 -11 -11 -11 -11 -11 -11 -11 -11 -11 -11 -11 -10 -10 -10 -10 -10 -10 -10 -10 -10
-13 -13 -13 -13 -13 -13 -13 -13 -13 -12 -12 -12 -12 -12 -12 -12 -12 -12 -12 -12 -11 -11 -11 -12 -12 -12 -12 -12 -12 -12 -12 -12 -12 -12 -12 -12 -12 -12 -11 -11 -11 -11 -11 -11 -11 -11 -11 -11 -11 -11 -11 -11 -11 -11 -11 -11 -11 -11 -11 -11 -11 -11 -11 -11 -10 -10 -10 -10 -11
-13 -13 -13 -13 -13 -13 -13 -13 -13 -12 -12 -12 -12 -12 -12 -12 -12 -12 -12 -12 -12 -12 -11 -12 -12 -12 -12 -12 -12 -12 -12 -12 -12 -12 -12 -12 -12 -12 -12 -11 -11 -11 -11 -11 -11 -11 -11 -11 -11 -11 -11 -11 -12 -12 -11 -11 -11 -11 -11 -11 -11 -11 -11 -11 -11 -11 -11 -11 -11
-12 -13 -13 -13 -13 -13 -13 -13 -12 -12 -12 -12 -12 -12 -12 -12 -12 -12 -12 -12 -12 -12 -12 -12 -12 -12 -12 -12 -12 -12 -12 -12 -12 -12 -12 -12 -12 -12 -12 -12 -12 -12 -12 -11 -11 -11 -11 -11 -11 -11 -11 -12 -12 -12 -12 -12 -12 -12 -11 -11 -11 -11 -11 -11 -11 -11 -11 -11 -11
-12 -13 -13 -13 -13 -13 -13 -12 -12 -12 -12 -12 -12 -12 -12 -12 -12 -12 -12 -12 -12 -12 -12 -12 -12 -12 -12 -12 -12 -12 -12 -12 -12 -12 -12 -12 -12 -12 -12 -12 -12 -12 -12 -12 -11 -11 -11 -11 -11 -12 -12 -12 -12 -12 -12 -12 -12 -12 -12 -12 -12 -11 -11 -11 -11 -11 -11 -11 -11
-12 -12 -13 -13 -13 -13 -12 -12 -12 -12 -12 -12 -12 -12 -12 -12 -12 -12 -12 -12 -12 -12 -12 -12 -12 -12 -12 -12 -12 -12 -12 -12 -12 -12 -12 -12 -12 -12 -12 -12 -12 -12 -12 -12 -12 -11 -11 -11 -11 -12 -12 -12 -12 -12 -12 -12 -12 -12 -12 -12 -12 -12 -11 -11 -11 -11 -11 -11 -11
Height
1535 1533 1531 1529 1527 1525 1523 1521 1520 1518 1516 1514 1511 1510 1507 1506 1504 1502 1501 1499 1497 1496 1494 1492 1491 1489 1487 1485 1484 1482 1481 1479 1478 1476 1475 1474 1472 1471 1469 1467 1466 1465 1463 1462 1461 1459 1458 1457 1456 1454 1453 1452 1451 1450 1449 1449 1448 1447 1446 1446 1445 1444 1443 1442 1441 1441 1440 1439 1439
1535 1533 1531 1529 1527 1525 1523 1521 1519 1517 1516 1513 1511 1509 1507 1506 1504 1502 1501 1499 1497 1496 1494 1492 1490 1488 1486 1485 1484 1482 1481 1479 1477 1476 1474 1473 1471 1470 1468 1466 1465 1463 1462 1461 1460 1458 1457 1456 1455 1453 1452 1451 1450 1449 1448 1447 1447 1446 1445 1444 1444 1443 1442 1441 1440 1440 1439 1438 1437
1534 1532 1530 1528 1526 1525 1522 1520 1518 1516 1515 1513 1511 1509 1507 1506 1504 1502 1500 1499 1497 1495 1494 1491 1490 1488 1486 1485 1484 1482 1480 1478 1477 1475 1473 1472 1470 1468 1467 1465 1463 1462 1461 1460 1458 1457 1456 1455 1454 1452 1451 1449 1448 1447 1446 1446 1445 1445 1444 1443 1443 1442 1441 1440 1439 1439 1438 1437 1436
1533 1531 1529 1527 1526 1524 1522 1520 1518 1516 1514 1512 1511 1509 1507 1506 1504 1502 1500 1498 1496 1495 1493 1491 1490 1488 1487 1485 1483 1481 1480 1478 1476 1475 1473 1471 1469 1467 1466 1464 1462 1461 1459 1458 1457 1456 1455 1454 1452 1451 1449 1448 1447 1446 1445 1444 1444 1444 1443 1442 1441 1441 1440 1439 1438 1437 1437 1436 1435
1532 1531 1529 1527 1525 1523 1521 1519 1517 1516 1514 1512 1510 1509 1507 1505 1504 1502 1500 1498 1496 1495 1493 1491 1490 1489 1487 1485 1483 1481 1479 1478 1476 1474 1472 1470 1468 1466 1465 1463 1461 1460 1458 1457 1456 1455 1453 1452 1451 1449 1448 1447 1446 1445 1444 1443 1442 1442 1441 1441 1440 1439 1438 1437 1437 1436 1435 1434 1433
1531 1530 1528 1526 1524 1522 1521 1519 1517 1515 1513 1511 1510 1508 1506 1505 1503 1501 1500 1498 1496 1495 1493 1492 1490 1489 1486 1484 1482 1481 1479 1477 1475 1473 1471 1470 1467 1466 1464 1462 1460 1459 1457 1456 1454 1453 1452 1451 1449 1448 1446 1445 1444 1443 1442 1442 1441 1441 1440 1439 1438 1438 1437 1436 1435 1435 1434 1433 1432
1531 1529 1527 1525 1523 1521 1520 1518 1516 1515 1513 1511 1509 1507 1506 1504 1502 1501 1499 1498 1496 1495 1493 1492 1490 1488 1486 1484 1482 1480 1478 1476 1474 1473 1471 1469 1467 1465 1463 1461 1459 1458 1456 1455 1453 1452 1451 1449 1448 1446 1445 1444 1442 1441 1441 1441 1440 1439 1438 1437 1437 1436 1436 1435 1434 1433 1432 1431 1431
1531 1529 1527 1525 1523 1521 1519 1517 1516 1514 1512 1510 1509 1507 1506 1504 1502 1501 1499 1498 1496 1495 1493 1491 1490 1487 1486 1484 1482 1480 1478 1476 1474 1472 1470 1468 1466 1464 1462 1460 1458 1456 1455 1453 1452 1450 1449 1448 1446 1445 1443 1442 1441 1440 1439 1439 1438 1437 1437 1436 1435 1435 1434 1433 1432 1431 1431 1430 1429
1530 1528 1526 1524 1522 1521 1519 1517 1515 1513 1511 1510 1508 1507 1506 1504 1502 1501 1499 1498 1496 1495 1493 1491 1489 1487 1486 1484 1482 1480 1478 1476 1473 1471 1469 1467 1465 1463 1461 1459 1457 1456 1454 1452 1451 1449 1447 1446 1445 1443 1442 1441 1439 1438 1437 1437 1436 1436 1435 1435 1434 1433 1432 1431 1431 1430 1430 1429 1428
1529 1527 1525 1523 1521 1520 1518 1516 1514 1513 1511 1510 1508 1507 1506 1504 1502 1501 1499 1498 1496 1495 1493 1491 1489 1487 1486 1484 1481 1479 1477 1475 1473 1471 1469 1466 1465 1463 1461 1459 1456 1454 1452 1451 1449 1447 1446 1444 1443 1441 1440 1439 1438 1437 1436 1436 1435 1435 1434 1433 1432 1431 1431 1430 1430 1429 1428 1428 1427
1529 1527 1525 1523 1521 1519 1517 1515 1514 1512 1511 1510 1508 1506 1505 1504 1502 1501 1499 1498 1496 1495 1493 1491 1489 1487 1486 1483 1481 1479 1477 1475 1472 1470 1468 1466 1464 1462 1460 1458 1456 1454 1451 1450 1448 1446 1444 1443 1441 1440 1439 1438 1437 1436 1435 1434 1434 1434 1433 1432 1431 1430 1429 1429 1428 1428 1428 1427 1426
1528 1526 1524 1522 1520 1518 1516 1515 1513 1512 1511 1509 1508 1506 1505 1503 1502 1501 1499 1498 1496 1495 1493 1491 1489 1487 1485 1483 1481 1478 1476 1474 1472 1470 1468 1466 1463 1461 1459 1457 1455 1452 1451 1448 1447 1445 1443 1441 1439 1438 1436 1436 1435 1435 1434 1433 1433 1432 1431 1431 1430 1429 1428 1428 1427 1427 1427 1426 1426
1527 1526 1523 1521 1520 1518 1516 1515 1513 1512 1511 1509 1508 1506 1505 1504 1502 1501 1499 1498 1496 1495 1493 1491 1489 1487 1485 1482 1480 1477 1475 1473 1471 1469 1467 1465 1462 1460 1457 1455 1453 1451 1449 1447 1445 1443 1441 1440 1438 1436 1435 1434 1434 1433 1433 1432 1431 1431 1430 1430 1429 1428 1427 1426 1426 1426 1426 1426 1425
1527 1525 1523 1521 1520 1518 1516 1515 1513 1512 1511 1509 1508 1506 1505 1504 1502 1501 1500 1498 1496 1495 1493 1491 1489 1486 1484 1482 1479 1477 1475 1473 1471 1469 1466 1464 1461 1459 1456 1454 1451 1450 1447 1445 1443 1442 1440 1439 1437 1436 1434 1433 1432 1432 1432 1431 1431 1430 1429 1429 1428 1427 1427 1426 1426 1425 1425 1425 1425
1526 1525 1523 1521 1520 1518 1516 1515 1514 1512 1511 1510 1508 1507 1506 1504 1503 1501 1500 1498 1496 1495 1493 1491 1488 1486 1484 1481 1479 1476 1474 1472 1470 1468 1465 1462 1460 1457 1455 1452 1450 1448 1446 1444 1442 1441 1439 1438 1436 1435 1433 1432 1431 1431 1431 1430 1430 1429 1429 1428 1427 1427 1426 1426 1426 1425 1425 1425 1425
1526 1525 1523 1521 1520 1518 1517 1516 1514 1513 1511 1510 1509 1507 1506 1505 1503 1502 1500 1498 1496 1494 1492 1490 1488 1485 1483 1481 1478 1476 1474 1471 1469 1466 1464 1461 1458 1456 1453 1451 1449 1446 1445 1443 1441 1439 1438 1437 1436 1434 1433 1432 1431 1430 1430 1429 1429 1428 1428 1427 1427 1426 1426 1426 1425 1425 1424 1424 1424
1527 1525 1523 1522 1520 1519 1517 1516 1514 1513 1511 1510 1509 1508 1506 1505 1504 1502 1501 1499 1496 1494 1492 1490 1487 1485 1483 1480 1478 1476 1473 1471 1468 1466 1463 1460 1457 1455 1452 1450 1447 1445 1443 1441 1440 1438 1437 1436 1435 1434 1433 1432 1431 1430 1429 1428 1428 1427 1426 1426 1426 1426 1426 1426 1425 1424 1424 1423 1423
1527 1525 1524 1522 1521 1519 1517 1516 1515 1513 1512 1511 1509 1508 1507 1506 1504 1502 1501 1499 1497 1494 1492 1490 1487 1485 1482 1480 1477 1475 1473 1470 1467 1465 1462 1460 1457 1454 1451 1448 1446 1444 1442 1440 1438 1436 1435 1435 1434 1433 1432 1431 1431 1430 1428 1427 1427 1426 1426 1426 1426 1426 1425 1425 1424 1424 1423 1423 1423
1527 1526 1524 1522 1521 1519 1518 1516 1515 1514 1512 1511 1510 1509 1507 1506 1504 1503 1501 1499 1497 1494 1492 1489 1487 1485 1482 1480 1477 1475 1472 1470 1467 1465 1462 1459 1456 1453 1450 1447 1444 1442 1440 1438 1436 1436 1435 1434 1434 1433 1432 1431 1429 1428 1427 1426 1426 1426 1425 1425 1425 1425 1425 1424 1424 1423 1423 1423 1424
1528 1526 1524 1522 1521 1519 1518 1516 1515 1514 1513 1511 1510 1509 1508 1506 1505 1503 1501 1499 1496 1494 1492 1490 1487 1485 1482 1479 1477 1475 1472 1470 1467 1464 1461 1458 1455 1452 1448 1445 1442 1440 1438 1437 1436 1436 1435 1434 1433 1432 1431 1430 1428 1427 1426 1426 1426 1425 1425 1425 1425 1425 1424 1424 1423 1423 1424 1424 1423
1528 1526 1524 1523 1521 1519 1518 1517 1516 1514 1513 1512 1511 1509 1508 1506 1505 1503 1501 1499 1496 1494 1492 1490 1487 1484 1482 1479 1477 1474 1472 1470 1467 1464 1461 1458 1454 1450 1446 1443 1441 1439 1438 1437 1437 1436 1435 1434 1433 1432 1431 1430 1429 1428 1427 1426 1426 1426 1426 1425 1425 1425 1424 1424 1424 1424 1424 1424 1423
1528 1526 1525 1523 1521 1520 1518 1517 1516 1515 1514 1512 1511 1510 1508 1506 1505 1503 1501 1499 1496 1494 1492 1490 1487 1485 1482 1480 1477 1475 1473 1470 1468 1465 1461 1458 1453 1448 1445 1443 1442 1441 1440 1439 1437 1436 1435 1434 1433 1432 1431 1431 1430 1429 1428 1427 1427 1426 1426 1426 1425 1425 1425 1424 1424 1423 1424 1424 1424
1528 1526 1525 1523 1521 1520 1519 1517 1516 1515 1514 1513 1511 1510 1508 1506 1505 1503 1501 1499 1497 1495 1492 1490 1487 1485 1482 1480 1478 1476 1473 1471 1468 1465 1462 1459 1454 1450 1446 1445 1444 1443 1441 1440 1439 1438 1436 1435 1434 1433 1432 1431 1430 1429 1429 1428 1427 1427 1426 1426 1426 1426 1425 1424 1424 1424 1424 1424 1424
1529 1527 1525 1523 1521 1520 1519 1518 1516 1515 1514 1513 1512 1510 1508 1506 1505 1503 1501 1499 1497 1495 1492 1490 1487 1485 1483 1481 1479 1476 1474 1471 1468 1466 1463 1459 1456 1452 1450 1448 1446 1445 1444 1444 1443 1441 1439 1437 1436 1434 1433 1431 1431 1430 1429 1428 1427 1427 1426 1426 1426 1426 1426 1426 1425 1426 1426 1425 1425
1529 1527 1525 1523 1522 1520 1519 1518 1517 1516 1515 1513 1512 1511 1509 1506 1505 1503 1501 1499 1496 1494 1492 1490 1487 1485 1483 1481 1480 1477 1475 1472 1469 1466 1464 1461 1458 1455 1453 1451 1449 1448 1448 1447 1446 1444 1441 1439 1437 1435 1434 1432 1431 1430 1429 1428 1428 1428 1428 1428 1427 1427 1427 1427 1427 1426 1426 1426 1425
1529 1527 1525 1523 1522 1521 1519 1518 1517 1516 1515 1514 1512 1511 1509 1507 1505 1503 1501 1499 1496 1494 1492 1490 1488 1486 1484 1482 1480 1478 1476 1473 1471 1468 1466 1462 1460 1457 1455 1453 1451 1451 1450 1448 1446 1445 1443 1441 1439 1437 1435 1433 1432 1431 1430 1430 1429 1429 1429 1429 1428 1428 1428 1428 1428 1427 1427 1426 1426
1529 1527 1525 1523 1522 1521 1520 1519 1518 1516 1515 1514 1512 1511 1509 1507 1505 1503 1501 1499 1496 1494 1492 1490 1488 1487 1485 1483 1481 1479 1477 1475 1472 1470 1468 1465 1463 1460 1457 1455 1454 1454 1453 1451 1448 1446 1444 1442 1441 1440 1437 1435 1434 1432 1431 1431 1431 1430 1430 1429 1428 1428 1428 1428 1429 1428 1428 1427 1426
1528 1527 1525 1524 1522 1521 1520 1519 1518 1517 1515 1514 1512 1511 1509 1507 1505 1503 1501 1499 1496 1494 1492 1491 1489 1488 1486 1484 1482 1480 1478 1476 1474 1471 1470 1467 1465 1462 1460 1457 1456 1456 1455 1452 1450 1448 1446 1445 1443 1441 1440 1437 1436 1435 1434 1433 1432 1431 1430 1429 1429 1428 1428 1429 1429 1429 1429 1428 1427
1528 1527 1525 1524 1523 1522 1521 1520 1518 1517 1516 1514 1513 1511 1509 1507 1505 1503 1501 1499 1496 1495 1493 1492 1490 1489 1487 1485 1483 1481 1479 1477 1475 1473 1471 1469 1466 1464 1461 1459 1458 1458 1457 1454 1452 1450 1448 1446 1445 1443 1442 1440 1439 1437 1436 1434 1433 1432 1431 1431 1430 1430 1429 1429 1429 1429 1429 1429 1428
1529 1527 1526 1524 1523 1522 1521 1520 1518 1517 1516 1514 1513 1511 1510 1507 1506 1503 1501 1499 1497 1496 1494 1493 1491 1490 1488 1486 1484 1482 1480 1478 1476 1474 1472 1470 1468 1466 1464 1461 1459 1460 1459 1456 1453 1451 1449 1448 1446 1445 1444 1443 1441 1440 1438 1436 1435 1434 1433 1433 1432 1431 1431 1430 1429 1429 1429 1429 1429
1529 1527 1526 1525 1524 1522 1521 1520 1519 1517 1516 1515 1513 1511 1510 1508 1506 1504 1502 1500 1498 1496 1495 1494 1492 1491 1489 1487 1486 1483 1481 1479 1477 1476 1474 1471 1470 1468 1466 1463 1461 1461 1461 1457 1455 1453 1451 1449 1448 1447 1446 1445 1444 1442 1440 1438 1436 1436 1435 1435 1434 1433 1432 1431 1431 1430 1430 1430 1430
1529 1527 1526 1525 1524 1523 1521 1520 1519 1517 1516 1515 1513 1511 1510 1508 1506 1504 1502 1501 1499 1497 1496 1494 1492 1491 1490 1488 1486 1484 1482 1481 1479 1477 1475 1473 1471 1470 1468 1465 1462 1463 1463 1459 1456 1455 1453 1451 1450 1448 1447 1446 1446 1444 1442 1441 1440 1439 1438 1437 1436 1435 1434 1433 1432 1432 1432 1432 1432
1529 1528 1526 1525 1524 1523 1521 1520 1519 1517 1516 1515 1513 1512 1510 1508 1507 1505 1503 1501 1499 1498 1496 1495 1493 1492 1490 1489 1487 1485 1483 1481 1480 1478 1476 1475 1473 1471 1469 1467 1464 1464 1464 1461 1458 1456 1455 1453 1452 1450 1449 1448 1447 1446 1445 1444 1442 1441 1440 1439 1438 1437 1436 1435 1434 1434 1434 1434 1434
1529 1528 1526 1525 1524 1523 1521 1520 1519 1517 1516 1515 1513 1512 1511 1509 1507 1505 1503 1502 1500 1499 1497 1496 1494 1493 1491 1490 1488 1486 1484 1483 1481 1479 1477 1476 1474 1473 1471 1468 1466 1465 1465 1464 1461 1458 1456 1455 1453 1452 1451 1449 1448 1447 1446 1445 1444 1443 1442 1441 1440 1439 1438 1437 1436 1435 1434 1435 1435
1529 1528 1526 1525 1524 1523 1521 1520 1519 1517 1516 1515 1513 1512 1511 1509 1507 1506 1504 1502 1501 1500 1498 1496 1495 1494 1493 1491 1489 1487 1486 1484 1482 1480 1478 1477 1475 1474 1472 1470 1467 1466 1465 1465 1462 1460 1458 1456 1455 1454 1452 1451 1449 1448 1447 1446 1446 1445 1444 1443 1441 1440 1439 1438 1437 1436 1435 1434 1435
1529 1528 1526 1525 1524 1523 1521 1520 1519 1517 1516 1515 1513 1512 1511 1509 1507 1506 1504 1503 1501 1500 1498 1497 1496 1494 1493 1491 1490 1488 1486 1485 1483 1481 1480 1478 1476 1475 1473 1471 1469 1466 1466 1466 1464 1461 1460 1457 1456 1455 1454 1452 1450 1449 1448 1447 1446 1445 1445 1444 1443 1442 1441 1439 1438 1437 1436 1435 1435
1530 1528 1527 1525 1524 1523 1521 1520 1519 1517 1516 1515 1513 1512 1511 1509 1508 1506 1505 1503 1501 1500 1499 1497 1496 1495 1493 1492 1491 1489 1488 1486 1484 1482 1481 1479 1477 1476 1474 1472 1470 1468 1466 1466 1465 1463 1461 1459 1457 1456 1455 1453 1451 1450 1449 1448 1447 1446 1445 1444 1443 1442 1441 1441 1440 1438 1437 1436 1436
1530 1528 1527 1526 1524 1523 1521 1520 1518 1517 1516 1514 1513 1512 1511 1509 1508 1506 1505 1503 1502 1501 1499 1498 1496 1495 1494 1493 1492 1490 1489 1487 1486 1484 1482 1480 1478 1477 1476 1474 1471 1470 1468 1468 1466 1465 1463 1461 1459 1457 1456 1454 1453 1451 1450 1449 1448 1446 1445 1444 1443 1443 1442 1441 1440 1439 1438 1437 1436
1530 1529 1527 1526 1524 1523 1521 1520 1518 1517 1516 1514 1513 1512 1511 1509 1508 1506 1505 1504 1502 1501 1500 1498 1497 1496 1495 1494 1493 1491 1490 1488 1486 1485 1483 1481 1480 1478 1477 1475 1473 1471 1470 1469 1468 1467 1465 1463 1461 1459 1457 1456 1455 1453 1452 1451 1449 1447 1446 1445 1444 1443 1442 1441 1440 1439 1438 1437 1437
1530 1529 1527 1526 1524 1523 1521 1520 1518 1516 1516 1514 1513 1512 1511 1509 1508 1507 1505 1504 1503 1502 1500 1499 1498 1497 1496 1494 1493 1492 1490 1489 1487 1486 1484 1482 1481 1480 1478 1476 1475 1473 1471 1471 1470 1469 1467 1465 1462 1460 1459 1457 1456 1455 1453 1452 1450 1449 1447 1446 1445 1443 1442 1441 1440 1439 1438 1437 1437
1530 1529 1527 1526 1524 1523 1521 1519 1518 1516 1515 1514 1513 1512 1511 1510 1508 1507 1506 1504 1503 1502 1501 1500 1498 1497 1496 1495 1494 1492 1491 1489 1488 1486 1485 1483 1482 1481 1479 1477 1476 1474 1473 1472 1471 1470 1469 1466 1465 1462 1460 1459 1458 1456 1455 1453 1451 1450 1448 1447 1446 1445 1443 1442 1441 1440 1438 1437 1436
Wind_Speed
35 34 34 33 33 32 32 32 32 32 31 31 31 31 30 30 29 29 28 28 28 28 28 28 28 29 30 30 31 31 31 31 30 30 29 29 28 29 29 29 28 27 26 25 24 24 25 26 28 28 27 25 23 22 20 19 19 20 20 20 20 20 21 22 22 22 21 21 21
34 34 33 33 32 32 32 32 32 31 30 30 29 28 28 28 27 27 27 27 27 27 28 28 29 30 31 31 32 32 31 31 31 30 30 29 29 29 29 29 29 28 26 25 25 25 25 27 28 28 28 26 25 24 22 20 19 20 20 20 20 20 21 22 22 21 21 21 21
34 34 33 33 32 32 32 31 31 30 29 28 27 26 25 26 26 26 26 26 26 27 29 30 31 31 31 31 31 31 31 31 30 30 30 29 29 29 29 29 29 28 27 26 25 25 26 27 28 28 28 28 27 26 24 21 20 19 20 20 20 20 21 21 21 20 20 20 20
34 33 33 32 32 31 31 30 29 28 27 26 25 24 24 24 24 25 26 26 28 29 30 31 31 30 30 31 31 31 30 29 29 29 29 29 29 29 29 29 28 28 27 27 26 26 27 27 28 29 29 29 28 27 25 23 21 19 19 19 20 20 21 20 19 19 19 19 19
33 33 33 32 31 30 30 29 28 26 25 24 23 23 23 24 24 25 26 27 29 29 30 30 29 29 29 29 29 29 29 29 29 29 29 30 30 30 30 29 29 29 28 28 27 27 28 28 29 29 30 30 29 28 26 24 22 20 19 19 20 20 20 19 18 18 18 18 18
33 33 32 31 30 29 28 27 26 25 24 23 23 23 24 24 25 26 27 28 28 29 29 28 28 28 28 28 29 29 29 29 29 30 30 30 31 31 31 31 30 30 29 29 28 28 28 29 29 30 30 30 29 28 27 25 23 22 21 21 21 20 19 18 17 17 17 17 16
32 31 31 30 29 28 27 26 26 25 24 23 23 24 25 25 26 26 27 27 27 28 27 26 26 27 28 28 29 29 30 30 31 31 31 32 32 32 32 32 31 31 30 30 29 29 29 29 30 30 30 29 29 28 27 26 24 23 22 22 21 20 19 18 17 17 17 16 15
30 30 29 28 28 27 27 26 25 25 24 24 24 24 25 25 26 26 26 26 26 26 25 25 26 27 28 29 30 30 31 31 31 32 32 33 33 33 33 33 32 31 31 30 30 30 30 30 30 30 30 29 29 29 28 26 25 24 23 22 21 20 19 18 18 18 17 16 14
29 29 28 28 27 27 26 26 26 25 24 24 24 24 24 24 25 25 25 25 24 24 25 26 28 29 29 30 30 31 31 31 32 32 33 34 34 34 34 33 33 32 31 31 31 31 31 31 30 30 29 29 29 29 28 26 25 24 22 22 21 20 19 18 19 18 17 15 13
28 28 28 27 27 27 26 26 26 25 24 24 24 24 24 24 24 24 24 24 24 25 27 28 29 30 31 31 31 31 31 32 32 33 34 35 34 34 34 33 33 32 32 31 31 31 31 31 30 30 29 29 28 28 27 26 25 23 22 21 21 21 19 18 18 17 16 13 11
28 28 28 27 27 27 27 27 27 26 24 24 24 24 24 24 24 24 24 24 26 27 29 30 31 31 32 32 32 31 32 32 33 34 35 35 34 34 34 33 33 32 32 31 31 30 30 30 30 30 29 28 28 27 27 25 24 23 21 21 21 20 19 17 16 15 13 10 10
28 28 28 28 28 28 28 27 27 26 25 24 25 25 25 25 24 24 25 26 28 29 30 31 32 32 33 33 32 32 32 33 34 35 35 35 35 34 34 33 33 32 31 30 29 29 29 29 29 30 29 28 27 27 26 24 23 22 21 20 19 19 18 17 15 13 10 8 10
29 28 28 28 28 28 28 27 26 25 25 25 25 25 25 25 24 25 26 27 28 30 31 32 33 33 34 34 33 33 33 34 35 35 35 35 34 34 34 34 33 32 31 29 28 27 27 28 28 29 29 28 27 25 24 23 23 22 21 20 19 17 16 15 13 11 8 5 8
29 28 28 28 28 28 27 26 26 25 25 25 25 25 25 25 25 26 27 28 29 30 32 33 34 35 34 34 34 34 34 35 35 34 34 34 33 33 34 34 33 32 30 28 27 26 26 26 26 27 28 27 25 24 23 23 22 22 22 21 20 17 14 12 10 9 8 7 9
28 28 28 28 27 27 26 26 25 25 25 25 25 25 25 25 25 26 27 29 30 31 33 35 35 35 34 34 34 34 34 34 34 33 33 33 33 33 33 33 32 30 29 28 26 25 24 24 24 25 25 25 23 23 22 22 22 22 23 22 20 16 12 9 9 9 9 10 12
28 27 27 27 27 26 25 25 25 24 24 25 24 24 24 25 25 26 28 29 30 32 34 35 35 35 34 33 33 33 33 33 32 32 32 32 32 32 32 31 30 29 28 28 27 25 23 22 21 21 22 22 22 22 22 23 23 23 23 21 17 12 9 8 9 10 12 13 14
27 27 27 26 26 25 25 25 24 24 24 24 24 24 24 24 25 26 28 29 31 33 34 35 35 34 33 33 32 32 32 32 32 32 31 31 32 32 32 31 30 29 28 28 27 26 23 19 18 18 19 20 21 22 23 23 23 21 18 14 10 7 6 8 10 12 13 14 15
26 26 26 26 25 25 25 24 24 23 23 23 23 23 23 24 25 26 27 29 31 33 34 34 33 33 32 32 32 32 32 32 32 32 32 32 33 33 33 33 32 31 30 29 27 25 22 18 17 17 19 20 21 21 20 19 17 14 10 7 4 4 6 9 11 12 13 12 11
25 25 26 25 25 25 24 24 23 23 22 22 22 23 23 24 25 26 27 29 31 32 33 33 32 32 32 32 32 32 32 32 32 32 33 34 35 36 36 36 36 35 34 31 27 23 20 18 17 17 18 18 17 16 14 12 9 7 5 3 3 6 8 10 10 10 9 7 6
25 25 25 25 25 24 24 23 22 22 21 21 22 23 23 24 24 26 27 29 31 32 32 31 31 31 32 33 33 33 33 33 33 34 36 38 39 39 40 40 40 39 36 32 27 22 19 17 17 17 16 15 14 13 11 10 8 6 5 5 7 9 10 9 7 4 4 7 9
25 25 25 24 24 24 23 22 21 20 21 21 22 23 23 24 25 26 27 29 30 31 31 30 30 31 32 34 34 34 34 34 35 37 39 41 43 44 45 44 44 41 36 31 26 22 19 17 16 15 14 14 14 13 11 10 9 8 8 9 9 9 7 5 7 11 13 14 13
25 25 24 24 23 23 22 21 20 20 21 21 22 23 23 24 25 26 27 28 30 30 30 29 30 31 33 34 34 34 34 35 37 38 40 42 46 49 49 48 45 40 35 30 26 22 20 18 16 14 13 12 11 10 8 8 8 8 7 7 6 6 10 14 17 18 17 16 15
24 24 24 23 22 22 21 20 20 20 21 22 23 23 24 24 25 26 27 28 29 29 29 29 30 31 32 33 33 33 35 36 38 39 40 43 47 50 50 47 44 39 35 30 26 22 19 17 14 11 10 8 8 8 7 7 6 6 7 10 15 18 20 21 20 19 18 17 17
24 24 23 23 22 21 20 20 20 20 21 22 23 24 24 25 25 26 28 29 29 29 29 29 30 32 32 32 33 33 35 37 38 39 40 43 47 48 47 44 41 38 35 32 28 24 21 17 14 11 10 10 12 14 15 16 16 17 20 22 24 24 23 22 21 20 19 18 18
23 23 23 23 22 21 20 20 20 21 22 23 23 24 25 25 26 27 29 29 29 29 29 30 31 31 32 32 32 34 35 37 38 38 39 42 45 45 44 40 39 37 34 32 30 28 25 22 19 16 15 17 20 22 24 25 24 24 24 24 23 23 23 23 23 21 20 20 20
23 23 23 22 21 21 20 20 21 21 22 23 23 24 25 26 27 28 29 30 29 29 29 30 30 31 31 31 32 34 35 36 36 36 37 40 43 44 42 39 37 35 32 30 30 29 29 27 24 21 20 22 24 26 27 26 24 23 21 21 21 21 22 22 22 23 23 22 22
23 23 23 22 21 21 21 21 21 21 22 22 24 25 25 26 27 28 29 29 29 29 29 30 30 30 30 31 32 34 35 36 35 35 35 36 40 43 43 40 37 34 31 30 28 28 28 27 25 24 23 24 25 26 26 25 23 22 22 22 23 23 22 21 21 22 23 24 24
24 24 23 22 22 21 21 21 21 21 22 22 23 24 25 26 28 29 29 29 29 29 29 29 29 29 29 30 32 33 34 35 34 33 33 34 37 41 43 42 38 34 31 30 29 28 26 25 25 25 24 24 24 24 24 25 26 28 29 30 30 30 28 26 24 22 23 24 26
24 24 23 23 22 22 21 21 21 21 21 22 22 24 25 26 28 29 29 29 28 28 28 28 28 27 28 29 31 33 34 34 33 32 32 32 35 39 42 42 39 35 32 32 32 30 27 24 23 23 24 24 24 24 26 29 31 33 34 34 33 33 32 30 29 27 25 25 26
23 23 23 23 22 22 21 21 20 20 20 21 22 23 24 26 28 29 29 28 27 27 27 26 26 26 27 29 30 32 33 33 32 32 31 31 33 36 39 41 40 37 34 33 33 33 30 26 23 21 22 23 25 28 30 32 33 33 33 32 31 30 30 30 29 28 27 26 26
23 23 23 23 22 22 21 20 19 19 19 20 21 22 24 26 28 29 28 27 26 25 25 24 25 25 26 28 30 31 32 32 32 31 30 30 31 34 37 39 40 37 34 33 34 35 33 29 24 21 19 20 23 27 30 32 32 31 30 29 29 29 29 29 28 27 26 25 23
22 23 23 23 22 21 20 19 19 18 18 19 20 21 23 25 27 27 27 26 25 24 23 23 24 25 26 28 29 31 31 32 31 31 30 29 30 31 34 37 38 37 35 33 34 36 36 32 28 23 19 18 19 22 26 28 28 27 26 26 26 27 28 29 29 28 26 24 21
22 22 22 22 22 21 20 19 18 18 18 18 19 20 22 24 26 26 26 26 24 23 22 22 23 24 25 27 28 30 30 31 31 30 30 29 28 29 31 34 37 37 36 34 34 35 36 35 31 26 22 18 17 18 20 22 23 24 24 24 25 26 27 28 29 30 29 28 24
22 22 22 22 22 21 20 19 18 18 17 17 18 19 21 23 25 26 25 25 24 22 21 21 21 22 23 25 27 28 29 30 30 30 29 29 28 28 29 32 36 37 37 35 33 33 35 36 34 30 25 22 19 17 17 17 18 19 20 21 23 24 25 26 27 29 29 29 27
22 22 22 22 22 22 21 19 18 17 17 17 17 18 20 22 24 24 24 23 22 21 20 19 19 20 21 23 25 27 28 29 29 29 29 28 28 28 28 30 33 37 38 37 34 33 33 35 35 33 29 26 23 21 19 17 16 16 15 16 17 18 20 21 23 24 26 27 27
22 22 23 23 24 23 22 20 19 17 17 17 17 18 20 21 22 23 23 22 21 20 19 19 19 19 21 23 24 25 26 27 28 28 28 28 28 28 28 29 31 35 37 38 36 33 32 34 35 34 32 30 28 26 24 22 20 18 17 15 14 14 14 15 16 18 20 22 24
23 23 24 25 25 25 23 21 19 18 17 17 17 18 19 21 22 22 21 20 20 19 19 18 18 19 21 22 23 24 25 26 26 27 27 27 28 28 28 28 30 33 35 36 37 35 33 33 34 35 34 33 31 29 28 26 25 23 21 20 18 16 14 13 13 14 15 17 20
23 24 25 26 26 26 25 22 20 18 17 17 17 17 19 20 21 21 21 19 18 18 18 18 18 19 20 21 22 22 23 24 24 25 26 26 27 27 27 28 29 31 32 34 36 35 33 32 33 34 34 33 33 31 30 29 28 27 25 24 22 20 18 16 15 14 13 14 15
23 24 25 26 27 27 26 24 21 18 17 16 16 17 18 20 21 21 19 18 17 16 17 17 17 18 19 20 20 21 21 22 23 24 24 25 26 26 27 27 28 29 30 31 33 34 33 31 32 33 33 33 33 32 31 30 29 28 27 26 25 24 22 20 18 17 15 14 13
23 24 25 26 27 28 26 24 21 18 16 16 16 17 19 19 20 19 18 16 15 15 16 16 17 17 18 19 19 20 20 21 21 22 23 24 25 26 26 26 27 27 28 29 30 31 32 32 30 31 32 33 33 32 31 31 30 29 29 28 27 26 24 23 21 20 19 18 16
23 24 25 26 27 27 26 24 21 18 16 15 16 17 18 18 18 18 17 15 15 15 16 17 17 17 17 17 18 18 19 19 20 21 22 23 24 25 26 26 26 26 27 27 28 29 30 31 30 30 31 32 32 32 32 31 31 30 30 29 28 27 26 25 24 23 22 21 20
Wind_Direction
336 336 335 335 335 334 333 332 332 332 331 331 331 331 331 332 334 335 336 337 338 339 339 339 341 342 343 344 344 343 342 341 341 340 338 335 332 329 327 325 323 320 319 318 319 323 327 328 327 325 322 321 320 320 319 318 318 320 323 325 326 325 324 322 321 321 321 319 314
336 335 335 335 334 333 332 332 331 331 331 331 332 332 334 335 337 339 339 340 341 342 343 343 345 345 344 343 342 341 340 340 340 338 336 334 331 329 327 325 322 320 318 316 317 320 324 326 324 321 319 318 318 318 317 317 319 321 323 325 325 324 321 319 318 318 317 315 312
336 335 335 334 334 333 332 332 332 332 332 333 333 335 337 339 340 341 342 343 345 346 347 346 346 345 342 340 339 339 339 339 338 336 335 333 333 332 330 328 325 322 319 316 316 318 321 322 321 318 316 315 316 317 317 318 320 322 323 323 323 321 318 316 315 314 313 311 309
336 336 335 335 334 334 333 333 334 334 334 335 336 338 340 342 343 344 345 346 348 349 348 347 345 341 338 336 337 339 340 339 338 336 336 336 336 337 336 334 331 327 323 320 318 318 319 319 317 315 313 314 315 316 316 317 318 320 321 322 321 320 318 316 314 312 311 309 307
338 337 336 335 335 335 335 336 336 337 337 338 340 342 344 345 346 348 348 348 348 348 347 345 341 337 336 337 340 342 342 342 341 340 340 340 341 341 341 339 336 333 329 326 323 321 319 318 316 314 313 314 314 314 314 313 315 317 319 321 322 321 320 318 315 313 310 309 307
339 338 337 337 337 337 338 338 339 340 340 341 344 347 348 348 349 350 350 348 347 346 344 341 338 338 340 343 345 346 345 346 345 344 343 342 342 342 341 340 337 335 332 330 327 324 321 319 317 315 315 315 314 313 312 311 312 314 317 320 323 324 323 320 317 315 313 311 308
340 339 338 339 340 340 341 342 342 342 343 345 349 351 351 351 352 351 350 348 346 343 341 340 341 345 348 348 348 347 347 347 346 345 343 342 341 341 339 338 336 334 332 330 328 325 324 322 319 318 317 316 315 314 312 310 310 311 314 319 325 327 326 323 322 320 319 316 311
341 340 341 342 343 344 344 344 344 346 348 350 353 354 354 353 352 351 349 348 345 343 343 346 350 352 351 349 348 346 346 345 344 342 342 341 339 338 337 335 334 332 331 329 327 326 324 323 321 319 319 318 316 314 311 309 307 307 311 318 326 329 329 327 327 327 326 321 313
342 343 344 345 346 347 347 347 348 350 353 355 356 356 355 354 352 351 350 348 347 348 352 354 355 353 351 348 346 345 343 342 341 340 340 339 337 335 334 333 331 330 330 329 328 326 324 323 321 320 319 318 316 313 309 306 305 305 309 318 326 331 332 331 332 332 330 324 311
345 346 348 349 350 350 350 351 353 356 358 358 358 357 356 353 352 352 352 352 355 357 359 358 355 352 348 346 344 343 342 341 340 339 339 339 336 334 333 331 330 329 329 329 328 326 323 321 320 319 318 317 315 311 307 304 302 303 308 318 327 332 334 335 336 336 333 323 304
349 350 352 353 353 353 355 357 359 0 0 360 359 357 356 355 355 356 358 0 1 0 358 356 353 349 346 344 342 341 341 341 341 340 339 338 335 334 333 331 330 330 330 329 327 324 322 320 318 317 316 316 314 310 306 303 300 302 309 321 329 331 333 336 340 340 333 314 291
353 355 356 356 357 357 359 1 2 2 2 0 359 358 357 357 360 2 3 3 0 358 356 354 351 348 346 344 342 342 342 341 341 340 338 337 336 335 334 333 333 332 331 329 326 322 320 318 316 315 315 314 312 309 305 302 300 303 312 324 330 331 331 336 344 347 338 302 281
357 359 359 360 0 1 2 4 4 4 3 2 1 360 360 1 4 5 3 0 358 356 355 353 351 349 347 345 344 344 344 343 342 340 339 337 336 336 335 336 337 337 335 331 326 322 319 317 316 316 315 313 311 307 304 302 301 307 316 325 330 331 332 339 351 360 356 314 287
1 2 2 2 3 4 5 6 6 5 4 3 3 3 3 5 6 4 1 358 356 355 355 353 351 349 348 347 347 346 346 345 344 342 340 339 339 338 339 340 341 341 339 333 327 322 319 318 318 318 316 314 310 306 303 302 304 310 318 325 328 330 333 343 357 4 0 336 313
4 4 4 5 5 6 7 8 7 7 6 6 5 6 6 6 5 3 0 358 357 356 355 353 351 350 349 350 350 349 349 347 346 344 343 342 342 342 343 344 345 344 340 335 329 325 323 322 323 322 319 316 310 306 305 306 309 314 320 324 327 329 332 338 343 344 340 331 320
6 6 6 6 7 8 9 10 9 8 8 8 8 9 8 5 4 2 0 359 357 356 355 353 351 350 351 353 354 353 351 349 348 346 345 344 344 345 346 346 347 345 341 335 330 327 327 329 329 329 326 322 315 311 310 312 314 317 321 325 327 328 326 320 318 322 325 323 319
7 7 7 8 9 10 11 11 10 9 9 9 10 10 8 6 3 2 1 359 356 355 354 352 351 352 353 355 356 355 353 351 349 348 346 346 346 346 347 347 346 344 340 334 330 330 333 338 340 338 333 328 322 317 315 315 317 321 324 328 328 320 306 300 306 315 321 322 323
7 7 7 8 10 12 12 12 11 10 10 11 12 11 9 6 3 1 359 358 356 354 353 352 352 354 356 358 358 356 354 352 351 350 349 349 348 348 347 346 345 342 339 335 334 337 344 351 350 344 336 329 324 320 319 320 322 327 333 336 319 295 294 300 310 319 323 325 331
6 7 8 9 11 12 13 12 11 11 12 13 13 11 9 6 3 0 358 356 355 354 353 352 354 357 359 359 359 358 356 355 354 353 353 352 351 349 347 346 344 343 343 344 348 354 0 1 353 343 335 331 331 333 336 340 345 353 359 352 318 306 307 311 316 320 325 337 5
5 6 8 9 11 12 12 12 11 12 14 15 14 11 8 5 2 359 357 356 355 354 353 354 356 359 1 1 1 0 359 359 358 358 357 355 352 350 349 348 347 349 353 360 7 13 12 4 353 346 345 350 358 7 14 19 22 22 12 349 329 320 317 318 324 347 36 64 73
5 6 7 9 12 13 12 12 12 14 16 16 14 10 7 3 0 358 357 356 355 354 354 356 360 2 3 3 3 3 2 2 2 2 360 357 354 353 353 353 354 359 7 16 22 22 16 8 2 3 8 16 22 24 23 19 11 1 349 337 329 326 333 9 65 81 84 83 79
4 5 7 10 13 14 13 13 14 17 18 17 13 9 5 1 358 357 356 355 355 355 356 360 3 5 5 5 5 5 5 5 6 5 3 0 360 0 1 2 5 12 20 26 27 25 21 17 16 19 23 27 25 21 14 4 352 343 340 345 5 41 68 79 84 86 86 82 76
3 5 7 11 14 15 15 15 17 19 19 16 12 7 3 0 358 356 356 355 355 356 359 4 6 7 8 8 8 7 7 7 9 8 6 5 7 10 12 15 18 21 24 25 28 31 30 24 21 20 21 23 24 25 26 27 30 39 56 69 75 79 81 82 82 81 80 77 73
4 6 9 13 16 16 17 18 20 20 19 15 10 7 3 0 358 357 356 355 355 358 3 7 9 9 10 10 10 10 9 9 10 10 9 9 13 17 21 25 26 25 23 24 30 37 38 30 24 25 34 44 52 56 59 64 71 78 83 83 82 79 77 75 75 74 73 70 67
6 9 12 15 17 18 19 20 21 21 18 14 10 6 3 1 359 358 356 355 357 1 7 10 10 11 11 12 12 11 11 11 12 12 12 12 15 20 24 27 28 26 23 23 28 35 37 35 36 43 55 62 64 63 64 68 76 83 87 85 83 79 75 71 69 67 64 61 59
8 12 15 17 19 19 20 21 21 19 16 12 9 6 4 2 360 358 357 357 360 5 10 12 12 12 12 13 12 12 12 13 15 15 15 15 16 19 22 25 26 25 23 20 23 27 32 35 39 47 58 64 64 63 64 69 78 86 88 85 83 80 76 71 65 61 57 54 52
11 14 17 19 20 21 21 21 20 17 14 11 8 6 4 2 359 358 358 359 4 9 12 13 13 13 13 13 12 12 13 14 17 18 18 18 18 18 19 21 24 25 24 22 22 24 27 31 35 42 51 59 63 64 66 71 76 78 77 74 73 73 72 70 66 60 55 50 47
14 16 18 20 21 22 21 19 18 15 13 10 8 5 3 1 360 359 360 3 8 11 13 13 13 14 13 13 12 12 13 15 18 19 20 20 20 19 19 19 23 26 27 25 24 24 25 27 31 37 45 54 61 65 68 69 67 66 64 63 63 63 63 63 63 60 56 51 47
15 17 19 20 21 21 20 18 16 13 11 8 6 5 3 1 0 1 2 6 10 13 13 13 14 14 14 13 12 12 13 16 18 20 21 21 22 22 20 20 23 28 30 28 27 26 26 25 28 34 41 49 56 61 65 65 64 62 60 59 58 58 58 58 58 58 56 54 51
16 18 19 19 20 19 18 16 13 11 8 6 5 4 3 2 1 2 4 8 12 13 13 14 14 15 14 13 12 12 14 16 19 20 21 22 23 24 23 22 24 28 31 30 28 28 26 25 25 29 37 45 50 56 60 62 62 61 59 58 57 56 56 56 55 54 53 52 52
17 18 18 17 17 16 14 12 10 8 6 5 4 3 3 2 2 3 5 9 12 14 14 15 16 15 14 12 11 12 14 16 18 21 22 23 24 25 25 24 24 26 29 30 29 28 27 26 24 25 30 38 45 50 55 59 61 61 60 58 57 56 55 53 52 50 48 45 46
17 17 17 16 14 12 10 8 7 5 4 3 3 3 3 2 2 3 6 9 12 14 15 16 16 15 13 11 10 11 13 16 18 21 22 23 24 25 26 27 25 25 27 30 29 28 27 28 27 24 24 28 38 47 54 59 62 63 63 61 60 58 57 55 53 50 45 39 35
16 16 16 15 12 9 6 5 3 2 1 1 2 3 3 2 1 2 5 9 12 13 14 15 15 14 12 10 9 11 13 15 18 20 22 23 24 25 27 28 26 24 25 28 29 27 26 28 29 27 25 25 31 42 51 58 62 65 67 67 66 64 63 61 58 55 49 43 35
14 14 14 15 12 8 4 2 0 359 359 359 0 2 3 2 1 1 3 7 10 12 13 14 15 14 12 10 9 10 12 14 17 19 21 23 23 24 27 29 28 25 24 27 29 27 25 26 29 29 28 27 28 33 40 48 53 58 61 65 67 67 66 65 63 60 55 48 40
13 12 13 14 13 8 3 360 357 356 355 356 358 0 2 2 0 360 1 4 7 9 11 12 14 13 12 10 10 11 12 14 16 19 21 23 23 24 27 29 30 27 25 26 28 27 24 23 26 29 30 29 29 29 30 33 36 39 42 47 52 58 60 61 61 60 57 53 44
14 12 12 13 12 9 4 359 356 353 353 353 355 357 359 0 359 358 358 0 4 7 9 9 11 11 10 10 10 11 12 14 15 18 21 23 24 25 26 29 31 29 26 24 25 26 24 21 22 26 29 30 30 29 29 29 29 29 27 26 27 31 37 43 47 51 53 52 46
15 13 12 12 10 8 4 360 356 352 351 351 352 354 356 357 357 356 355 356 0 4 7 7 7 7 8 9 10 11 12 13 15 18 21 23 25 25 26 28 31 30 27 22 21 23 24 20 19 21 26 29 30 29 29 29 28 28 27 25 22 18 16 17 22 28 36 41 42
16 14 12 10 7 5 2 0 357 353 351 349 349 351 353 354 354 353 353 353 357 1 4 4 3 3 5 7 8 10 11 13 15 18 22 24 26 26 27 28 31 31 28 22 20 21 22 20 17 18 22 26 28 28 28 28 28 27 26 25 23 21 17 14 12 12 16 22 30
17 14 11 8 4 2 0 359 358 355 352 349 348 350 352 352 352 352 351 352 354 358 1 1 359 359 0 3 6 8 10 12 15 19 22 25 26 26 27 28 31 32 29 24 20 20 21 20 18 16 18 22 24 25 26 27 27 27 26 24 23 22 20 19 17 16 15 14 17
16 14 11 7 3 360 358 359 360 359 355 351 351 352 352 352 351 351 351 352 355 359 360 359 356 355 355 358 2 5 8 11 15 19 23 25 26 26 27 28 30 31 30 25 21 19 20 21 19 17 16 18 20 22 23 25 25 25 25 24 22 21 20 20 19 19 18 17 16
15 13 10 7 3 359 358 0 2 3 1 358 356 356 354 352 352 352 355 359 2 2 1 359 355 351 350 353 358 2 6 9 14 18 22 24 26 26 26 27 29 30 30 27 22 19 19 20 21 19 16 14 15 17 19 22 23 23 23 22 21 20 19 19 19 19 18 17 16